HAZ11 RJTT-RJCC

Flight info

Callsign HAZ11
Flight time 1h 7m
Altitude 39000
Route BRUCE AGRIS Y11 SAMBO Y119 OHMAR Y13 SIRAO Y139 NAVER
Aircraft B772/H-SDE2E3FGHIJ5LORVWXY/LB1D1

Departure

Time 2026-05-04 02:57
Airport Tokyo Haneda International Airport (RJTT)

Arrival

Time 2026-05-04 04:04
Airport New Chitose Airport (RJCC)
Time Latitude Longitude Altitude Speed Heading
2026-05-04 02:18 35.55104 139.78993 34 ft 0 kts 240°
2026-05-04 02:47 35.55107 139.78999 34 ft 2 kts 240°
2026-05-04 02:47 35.55115 139.79015 34 ft 2 kts 240°
2026-05-04 02:47 35.55123 139.79031 34 ft 2 kts 240°
2026-05-04 02:47 35.55130 139.79048 34 ft 2 kts 249°
2026-05-04 02:48 35.55132 139.79065 34 ft 2 kts 280°
2026-05-04 02:48 35.55127 139.79082 34 ft 2 kts 306°
2026-05-04 02:48 35.55118 139.79094 34 ft 0 kts 329°
2026-05-04 02:48 35.55114 139.79097 34 ft 0 kts 330°
2026-05-04 02:49 35.55113 139.79097 34 ft 0 kts 330°
2026-05-04 02:49 35.55114 139.79097 34 ft 0 kts 330°
2026-05-04 02:52 35.55122 139.79091 34 ft 6 kts 330°
2026-05-04 02:52 35.55199 139.79080 34 ft 14 kts 34°
2026-05-04 02:52 35.55263 139.79178 34 ft 15 kts 60°
2026-05-04 02:52 35.55336 139.79271 34 ft 14 kts
2026-05-04 02:53 35.55435 139.79221 34 ft 15 kts 330°
2026-05-04 02:53 35.55533 139.79149 34 ft 16 kts 330°
2026-05-04 02:53 35.55633 139.79077 34 ft 17 kts 330°
2026-05-04 02:53 35.55740 139.79001 34 ft 17 kts 329°
2026-05-04 02:54 35.55852 139.78923 34 ft 18 kts 328°
2026-05-04 02:54 35.55964 139.78844 34 ft 18 kts 330°
2026-05-04 02:54 35.56075 139.78764 34 ft 18 kts 329°
2026-05-04 02:54 35.56191 139.78680 34 ft 19 kts 330°
2026-05-04 02:55 35.56430 139.78514 34 ft 19 kts 335°
2026-05-04 02:55 35.56535 139.78581 34 ft 19 kts 64°
2026-05-04 02:55 35.56506 139.78720 34 ft 17 kts 144°
2026-05-04 02:56 35.56397 139.78792 34 ft 17 kts 149°
2026-05-04 02:56 35.56289 139.78868 34 ft 18 kts 150°
2026-05-04 02:56 35.56150 139.78967 34 ft 43 kts 149°
2026-05-04 02:56 35.55681 139.79295 34 ft 109 kts 149°
2026-05-04 02:57 35.54819 139.79898 125 ft 166 kts 154°
2026-05-04 02:57 35.53766 139.80688 574 ft 187 kts 156°
2026-05-04 02:57 35.52750 139.81665 1460 ft 191 kts 141°
2026-05-04 02:57 35.51806 139.82855 1998 ft 200 kts 141°
2026-05-04 02:58 35.50805 139.84113 2254 ft 220 kts 142°
2026-05-04 02:58 35.49677 139.85532 2544 ft 237 kts 142°
2026-05-04 02:58 35.48530 139.86990 3141 ft 239 kts 142°
2026-05-04 02:58 35.47374 139.88466 3654 ft 244 kts 142°
2026-05-04 02:59 35.46212 139.89998 4185 ft 251 kts 137°
2026-05-04 02:59 35.45428 139.92001 4569 ft 275 kts 109°
2026-05-04 02:59 35.45464 139.94365 5061 ft 288 kts 79°
2026-05-04 02:59 35.46378 139.96547 5604 ft 288 kts 49°
2026-05-04 03:00 35.47875 139.98177 6057 ft 289 kts 30°
2026-05-04 03:00 35.49727 139.99077 6378 ft 285 kts
2026-05-04 03:00 35.51640 139.99004 6932 ft 270 kts 343°
2026-05-04 03:00 35.53459 139.98535 7489 ft 266 kts 337°
2026-05-04 03:01 35.55236 139.97969 8003 ft 266 kts 335°
2026-05-04 03:01 35.57016 139.97369 8511 ft 267 kts 334°
2026-05-04 03:01 35.58814 139.96755 8946 ft 272 kts 334°
2026-05-04 03:01 35.60661 139.96201 9512 ft 278 kts 342°
2026-05-04 03:02 35.62643 139.96144 9920 ft 293 kts 352°
2026-05-04 03:02 35.64694 139.96274 10439 ft 295 kts 354°
2026-05-04 03:02 35.66757 139.96420 10874 ft 299 kts 353°
2026-05-04 03:02 35.68848 139.96562 11288 ft 304 kts 353°
2026-05-04 03:03 35.70982 139.96704 11759 ft 307 kts 353°
2026-05-04 03:03 35.73078 139.96701 12161 ft 297 kts 343°
2026-05-04 03:03 35.75120 139.96262 12236 ft 300 kts 333°
2026-05-04 03:03 35.77049 139.95390 12787 ft 290 kts 325°
2026-05-04 03:04 35.78894 139.94453 13443 ft 286 kts 324°
2026-05-04 03:04 35.80732 139.93550 13958 ft 289 kts 325°
2026-05-04 03:04 35.82635 139.92639 14419 ft 293 kts 326°
2026-05-04 03:04 35.84559 139.91731 14546 ft 296 kts 326°
2026-05-04 03:05 35.86474 139.90834 14581 ft 296 kts 326°
2026-05-04 03:05 35.88385 139.89937 14563 ft 295 kts 326°
2026-05-04 03:05 35.90319 139.89027 14556 ft 295 kts 326°
2026-05-04 03:05 35.92261 139.88106 14655 ft 306 kts 326°
2026-05-04 03:06 35.94217 139.87189 15271 ft 301 kts 326°
2026-05-04 03:06 35.96180 139.86287 15879 ft 303 kts 329°
2026-05-04 03:06 35.98295 139.85805 16379 ft 323 kts 345°
2026-05-04 03:06 36.00618 139.86044 16842 ft 345 kts
2026-05-04 03:07 36.02945 139.86946 17253 ft 358 kts 12°
2026-05-04 03:07 36.05291 139.88023 17697 ft 361 kts 13°
2026-05-04 03:07 36.07660 139.89134 18113 ft 364 kts 13°
2026-05-04 03:07 36.10054 139.90256 18444 ft 373 kts 13°
2026-05-04 03:08 36.12529 139.91409 18536 ft 393 kts 14°
2026-05-04 03:08 36.15163 139.92642 18653 ft 412 kts 14°
2026-05-04 03:08 36.17900 139.93890 18775 ft 426 kts 10°
2026-05-04 03:08 36.20820 139.94722 18723 ft 437 kts 359°
2026-05-04 03:09 36.23859 139.94943 18669 ft 447 kts 350°
2026-05-04 03:09 36.27025 139.94842 18807 ft 460 kts 349°
2026-05-04 03:09 36.30246 139.94725 19263 ft 465 kts 349°
2026-05-04 03:09 36.33480 139.94617 19863 ft 466 kts 349°
2026-05-04 03:10 36.36720 139.94513 20415 ft 468 kts 349°
2026-05-04 03:10 36.39992 139.94411 20852 ft 473 kts 349°
2026-05-04 03:10 36.43316 139.94318 21361 ft 478 kts 351°
2026-05-04 03:10 36.46646 139.94426 21907 ft 483 kts 353°
2026-05-04 03:11 36.50012 139.94592 22325 ft 488 kts 354°
2026-05-04 03:11 36.53455 139.94757 22661 ft 495 kts 354°
2026-05-04 03:11 36.56902 139.94920 23061 ft 499 kts 353°
2026-05-04 03:11 36.60356 139.95081 23565 ft 501 kts 353°
2026-05-04 03:12 36.63835 139.95238 24004 ft 505 kts 353°
2026-05-04 03:12 36.67375 139.95396 24463 ft 508 kts 353°
2026-05-04 03:12 36.70899 139.95552 24950 ft 510 kts 353°
2026-05-04 03:12 36.74460 139.95709 25428 ft 512 kts 353°
2026-05-04 03:13 36.78020 139.95865 25832 ft 516 kts 352°
2026-05-04 03:13 36.81616 139.96022 26249 ft 519 kts 352°
2026-05-04 03:13 36.85250 139.96182 26652 ft 523 kts 353°
2026-05-04 03:13 36.88860 139.96689 27172 ft 535 kts
2026-05-04 03:14 36.92530 139.97577 27654 ft 538 kts
2026-05-04 03:14 36.96246 139.98521 27783 ft 548 kts
2026-05-04 03:14 37.00000 139.99484 28015 ft 554 kts
2026-05-04 03:14 37.03735 140.00449 28444 ft 555 kts
2026-05-04 03:15 37.07527 140.01428 28897 ft 556 kts
2026-05-04 03:15 37.11336 140.02414 29327 ft 557 kts
2026-05-04 03:15 37.15107 140.03391 29787 ft 557 kts
2026-05-04 03:15 37.18922 140.04379 30221 ft 557 kts
2026-05-04 03:16 37.22666 140.05348 30644 ft 557 kts
2026-05-04 03:16 37.26465 140.06332 31162 ft 554 kts
2026-05-04 03:16 37.30209 140.07304 31627 ft 553 kts
2026-05-04 03:16 37.33973 140.08281 32092 ft 552 kts
2026-05-04 03:17 37.37751 140.09262 32503 ft 551 kts
2026-05-04 03:17 37.41511 140.10237 32837 ft 553 kts
2026-05-04 03:17 37.45264 140.11212 33263 ft 552 kts
2026-05-04 03:17 37.49000 140.12186 33593 ft 553 kts
2026-05-04 03:18 37.52818 140.13179 33599 ft 553 kts
2026-05-04 03:18 37.60318 140.15141 33603 ft 546 kts
2026-05-04 03:19 37.67802 140.17093 33614 ft 553 kts
2026-05-04 03:19 37.75299 140.19060 33626 ft 547 kts
2026-05-04 03:20 37.82765 140.21017 33623 ft 550 kts
2026-05-04 03:20 37.90232 140.22981 33617 ft 551 kts
2026-05-04 03:21 37.97749 140.24963 33601 ft 549 kts
2026-05-04 03:21 38.05258 140.26947 33599 ft 552 kts
2026-05-04 03:22 38.12791 140.28943 33579 ft 551 kts
2026-05-04 03:22 38.20311 140.30937 33581 ft 555 kts
2026-05-04 03:23 38.27866 140.32947 33589 ft 555 kts
2026-05-04 03:23 38.35365 140.34946 33599 ft 555 kts
2026-05-04 03:24 38.42917 140.37080 33621 ft 563 kts
2026-05-04 03:24 38.50493 140.39548 33613 ft 556 kts
2026-05-04 03:25 38.57994 140.41985 33597 ft 561 kts
2026-05-04 03:25 38.65590 140.44447 33579 ft 562 kts
2026-05-04 03:26 38.73125 140.46892 33571 ft 559 kts
2026-05-04 03:26 38.80758 140.49364 33575 ft 565 kts
2026-05-04 03:27 38.88294 140.51814 33579 ft 560 kts
2026-05-04 03:27 38.95903 140.54285 33573 ft 568 kts
2026-05-04 03:28 39.03544 140.56775 33573 ft 568 kts
2026-05-04 03:28 39.11191 140.59285 33571 ft 564 kts
2026-05-04 03:29 39.18870 140.61801 33567 ft 576 kts
2026-05-04 03:29 39.26721 140.64381 33559 ft 589 kts
2026-05-04 03:30 39.34717 140.67023 33548 ft 600 kts
2026-05-04 03:30 39.42893 140.69733 33538 ft 608 kts
2026-05-04 03:31 39.51093 140.72456 33535 ft 614 kts
2026-05-04 03:31 39.59375 140.75212 33531 ft 616 kts
2026-05-04 03:32 39.67680 140.77980 33532 ft 620 kts
2026-05-04 03:32 39.76014 140.80766 33527 ft 619 kts
2026-05-04 03:33 39.84369 140.83565 33525 ft 619 kts
2026-05-04 03:33 39.92697 140.86360 33528 ft 619 kts
2026-05-04 03:34 40.01012 140.89157 33529 ft 620 kts
2026-05-04 03:34 40.09365 140.91974 33519 ft 622 kts
2026-05-04 03:35 40.17795 140.94656 33436 ft 616 kts
2026-05-04 03:35 40.21947 140.95306 33430 ft 603 kts 354°
2026-05-04 03:35 40.26132 140.95508 33455 ft 599 kts 352°
2026-05-04 03:36 40.34448 140.95741 33473 ft 597 kts 352°
2026-05-04 03:36 40.42706 140.95981 33473 ft 599 kts 352°
2026-05-04 03:37 40.51065 140.96240 33476 ft 594 kts 351°
2026-05-04 03:37 40.59328 140.96500 33467 ft 598 kts 351°
2026-05-04 03:38 40.67634 140.96770 33468 ft 596 kts 351°
2026-05-04 03:38 40.75899 140.97041 33460 ft 594 kts 351°
2026-05-04 03:39 40.84179 140.97311 33456 ft 599 kts 351°
2026-05-04 03:39 40.92512 140.97591 33439 ft 596 kts 351°
2026-05-04 03:40 41.00792 140.97864 33442 ft 600 kts 352°
2026-05-04 03:40 41.09075 140.98143 33419 ft 598 kts 351°
2026-05-04 03:40 41.13246 140.98286 33256 ft 595 kts 352°
2026-05-04 03:41 41.17272 140.98424 32987 ft 594 kts 351°
2026-05-04 03:41 41.21361 140.98563 32711 ft 591 kts 351°
2026-05-04 03:41 41.25485 140.98706 32440 ft 588 kts 351°
2026-05-04 03:41 41.29591 140.99242 32220 ft 594 kts
2026-05-04 03:42 41.33467 141.00470 32019 ft 604 kts 11°
2026-05-04 03:42 41.37463 141.02261 31779 ft 612 kts 14°
2026-05-04 03:42 41.41449 141.04172 31403 ft 614 kts 14°
2026-05-04 03:42 41.45478 141.06130 31012 ft 611 kts 15°
2026-05-04 03:43 41.49435 141.08061 30624 ft 609 kts 15°
2026-05-04 03:43 41.53391 141.10001 30231 ft 607 kts 15°
2026-05-04 03:43 41.57370 141.11958 29774 ft 605 kts 15°
2026-05-04 03:43 41.61313 141.13902 29271 ft 602 kts 17°
2026-05-04 03:44 41.65206 141.15828 28780 ft 597 kts 15°
2026-05-04 03:44 41.69080 141.17747 28279 ft 591 kts 16°
2026-05-04 03:44 41.72889 141.19659 27800 ft 587 kts 16°
2026-05-04 03:44 41.76696 141.21582 27253 ft 586 kts 15°
2026-05-04 03:45 41.80479 141.23497 26638 ft 582 kts 15°
2026-05-04 03:45 41.84259 141.25413 26044 ft 577 kts 17°
2026-05-04 03:45 41.88008 141.27316 25429 ft 572 kts 15°
2026-05-04 03:45 41.91684 141.29215 24866 ft 569 kts 19°
2026-05-04 03:46 41.95174 141.31598 24336 ft 569 kts 28°
2026-05-04 03:46 41.98421 141.34665 23813 ft 565 kts 40°
2026-05-04 03:46 42.01321 141.38106 23300 ft 560 kts 43°
2026-05-04 03:46 42.04156 141.41643 22771 ft 555 kts 44°
2026-05-04 03:47 42.06984 141.45209 22245 ft 551 kts 44°
2026-05-04 03:47 42.09740 141.48703 21737 ft 546 kts 44°
2026-05-04 03:47 42.12575 141.51994 21141 ft 541 kts 36°
2026-05-04 03:47 42.15684 141.54771 20534 ft 533 kts 28°
2026-05-04 03:48 42.18892 141.57181 19965 ft 527 kts 26°
2026-05-04 03:48 42.22107 141.59546 19391 ft 520 kts 26°
2026-05-04 03:48 42.25236 141.61852 18823 ft 513 kts 26°
2026-05-04 03:48 42.28313 141.64128 18260 ft 506 kts 26°
2026-05-04 03:49 42.31398 141.66417 17666 ft 499 kts 28°
2026-05-04 03:49 42.34399 141.68648 17047 ft 492 kts 27°
2026-05-04 03:49 42.37360 141.70854 16419 ft 486 kts 27°
2026-05-04 03:49 42.40296 141.73047 15784 ft 479 kts 28°
2026-05-04 03:50 42.43197 141.75217 15159 ft 473 kts 27°
2026-05-04 03:50 42.46032 141.77339 14528 ft 467 kts 27°
2026-05-04 03:50 42.48864 141.79463 13896 ft 460 kts 27°
2026-05-04 03:50 42.51619 141.81534 13224 ft 453 kts 27°
2026-05-04 03:51 42.54327 141.83556 12544 ft 434 kts 25°
2026-05-04 03:51 42.56992 141.85069 12316 ft 409 kts 14°
2026-05-04 03:51 42.59722 141.85939 12172 ft 389 kts
2026-05-04 03:51 42.62346 141.86200 11631 ft 369 kts 354°
2026-05-04 03:52 42.64865 141.86078 11078 ft 357 kts 353°
2026-05-04 03:52 42.67299 141.85919 10376 ft 352 kts 352°
2026-05-04 03:52 42.69728 141.85733 9647 ft 349 kts 352°
2026-05-04 03:52 42.72140 141.85525 8908 ft 346 kts 352°
2026-05-04 03:53 42.74520 141.85309 8160 ft 343 kts 352°
2026-05-04 03:53 42.76886 141.85086 7411 ft 340 kts 352°
2026-05-04 03:53 42.79223 141.84862 6655 ft 338 kts 352°
2026-05-04 03:53 42.81560 141.84630 5904 ft 335 kts 350°
2026-05-04 03:54 42.83817 141.84088 5122 ft 330 kts 345°
2026-05-04 03:54 42.86014 141.83389 4385 ft 326 kts 345°
2026-05-04 03:54 42.88189 141.82683 4040 ft 310 kts 346°
2026-05-04 03:54 42.90199 141.82036 3984 ft 286 kts 346°
2026-05-04 03:55 42.92079 141.81435 3998 ft 269 kts 345°
2026-05-04 03:55 42.93898 141.80853 3988 ft 267 kts 346°
2026-05-04 03:55 42.95686 141.80284 3988 ft 266 kts 346°
2026-05-04 03:55 42.97483 141.79715 3992 ft 265 kts 346°
2026-05-04 03:56 42.99290 141.79135 3986 ft 265 kts 343°
2026-05-04 03:56 43.00923 141.78078 3915 ft 255 kts 322°
2026-05-04 03:56 43.02309 141.76617 3678 ft 246 kts 315°
2026-05-04 03:56 43.03297 141.74809 3352 ft 234 kts 288°
2026-05-04 03:57 43.03608 141.72688 3048 ft 228 kts 263°
2026-05-04 03:57 43.03258 141.70634 2746 ft 221 kts 240°
2026-05-04 03:57 43.02401 141.68950 2480 ft 216 kts 229°
2026-05-04 03:57 43.01432 141.67381 2226 ft 215 kts 229°
2026-05-04 03:58 42.98860 141.65199 1961 ft 223 kts 185°
2026-05-04 03:58 42.97409 141.65413 1974 ft 194 kts 169°
2026-05-04 03:58 42.96160 141.65764 2004 ft 175 kts 171°
2026-05-04 03:59 42.94976 141.66000 2004 ft 166 kts 173°
2026-05-04 03:59 42.93830 141.66193 2005 ft 165 kts 174°
2026-05-04 03:59 42.92691 141.66386 2006 ft 163 kts 174°
2026-05-04 03:59 42.91577 141.66579 2010 ft 159 kts 173°
2026-05-04 04:00 42.90541 141.66760 2004 ft 142 kts 173°
2026-05-04 04:00 42.89583 141.66927 2014 ft 132 kts 174°
2026-05-04 04:00 42.88695 141.67082 2007 ft 127 kts 174°
2026-05-04 04:00 42.87795 141.67241 1886 ft 127 kts 174°
2026-05-04 04:01 42.86925 141.67395 1712 ft 126 kts 174°
2026-05-04 04:01 42.86047 141.67548 1553 ft 126 kts 174°
2026-05-04 04:01 42.85187 141.67700 1388 ft 126 kts 174°
2026-05-04 04:01 42.84308 141.67854 1209 ft 126 kts 174°
2026-05-04 04:02 42.83432 141.68008 1045 ft 126 kts 174°
2026-05-04 04:02 42.82567 141.68161 880 ft 125 kts 174°
2026-05-04 04:02 42.81694 141.68314 708 ft 123 kts 174°
2026-05-04 04:02 42.80837 141.68465 534 ft 123 kts 174°
2026-05-04 04:03 42.79984 141.68613 369 ft 121 kts 175°
2026-05-04 04:03 42.79158 141.68755 188 ft 123 kts 174°
2026-05-04 04:03 42.78306 141.68907 115 ft 123 kts 175°
2026-05-04 04:03 42.77503 141.69034 96 ft 101 kts 167°
2026-05-04 04:04 42.76917 141.69138 96 ft 71 kts 168°
2026-05-04 04:04 42.76502 141.69218 96 ft 50 kts 170°
2026-05-04 04:04 42.76264 141.69260 96 ft 0 kts 181°
2026-05-04 04:04 42.76235 141.69260 96 ft 11 kts 183°
2026-05-04 04:05 42.76167 141.69179 96 ft 14 kts 257°
2026-05-04 04:05 42.76193 141.69047 96 ft 14 kts 330°
2026-05-04 04:05 42.76303 141.69019 96 ft 17 kts 351°
2026-05-04 04:05 42.76432 141.68991 96 ft 20 kts 351°
2026-05-04 04:06 42.76577 141.68964 96 ft 22 kts 355°
2026-05-04 04:06 42.76742 141.68945 96 ft 24 kts 352°
2026-05-04 04:06 42.76918 141.68922 96 ft 26 kts 354°
2026-05-04 04:06 42.77107 141.68889 96 ft 28 kts 351°
2026-05-04 04:07 42.77310 141.68858 96 ft 30 kts 353°
2026-05-04 04:07 42.77525 141.68814 96 ft 32 kts 350°
2026-05-04 04:07 42.77753 141.68773 96 ft 33 kts 353°
2026-05-04 04:07 42.77993 141.68732 96 ft 35 kts 354°
2026-05-04 04:08 42.78240 141.68692 96 ft 31 kts 351°
2026-05-04 04:08 42.78262 141.68687 96 ft 4 kts 352°
2026-05-04 04:08 42.78352 141.68660 96 ft 17 kts 333°
2026-05-04 04:08 42.78418 141.68517 96 ft 18 kts 287°
2026-05-04 04:09 42.78487 141.68364 96 ft 19 kts 315°
2026-05-04 04:09 42.78608 141.68376 96 ft 19 kts 20°
2026-05-04 04:09 42.78749 141.68408 96 ft 21 kts 359°
2026-05-04 04:09 42.78834 141.68390 96 ft 0 kts 349°
2026-05-04 04:10 42.78841 141.68388 96 ft 2 kts 349°
2026-05-04 04:10 42.78859 141.68370 96 ft 3 kts 294°
2026-05-04 04:10 42.78859 141.68323 96 ft 6 kts 260°
2026-05-04 04:10 42.78843 141.68257 96 ft 0 kts 245°
2026-05-04 04:11 42.78845 141.68262 95 ft 0 kts 245°
2026-05-04 04:11 42.78845 141.68259 96 ft 0 kts 245°
2026-05-04 04:11 42.78844 141.68256 96 ft 0 kts 246°
2026-05-04 04:11 42.78845 141.68257 96 ft 0 kts 246°
2026-05-04 04:12 42.78844 141.68257 96 ft 0 kts 245°
2026-05-04 04:12 42.78844 141.68256 96 ft 0 kts 245°